Weather History for KBCB - July, 2013

Change the Weather History Date:

Thursday, July 25, 2013

  Actual Average Record
Temperature  
Mean Temperature 69 °F 71 °F  
Max Temperature 79 °F 82 °F 92 °F (1987)
Min Temperature 58 °F 60 °F 53 °F (1988)
Degree Days  
Heating Degree Days 0 0  
Month to date heating degree days 0 0  
Since 1 June heating degree days 7 38  
Since 1 July heating degree days 0 0  
Cooling Degree Days 4 6  
Month to date cooling degree days 204 156  
Year to date cooling degree days 351 304  
Since 1 June cooling degree days 320 275  
Growing Degree Days 20 (Base 50)    
Moisture  
Dew Point 62 °F    
Average Humidity 70    
Maximum Humidity 100    
Minimum Humidity 39    
Precipitation  
Precipitation 0.00 in 0.14 in 1.21 in (1992)
Month to date precipitation 5.94 3.44  
Year to date precipitation 35.75 24.78  
Snow  
Snow 0.00 in - - ()
Month to date snowfall 0.0  
Since 1 June snowfall T  
Since 1 July snowfall 0.0  
Snow Depth 0.00 in    
Sea Level Pressure  
Sea Level Pressure 30.05 in    
Wind  
Wind Speed 3 mph (North)    
Max Wind Speed 8 mph    
Max Gust Speed -    
Visibility 10 miles    
Events      
T = Trace of Precipitation, MM = Missing Value Source: NWS Daily Summary

Daily Weather History Graph

Daily Weather History Graph

Search for Another Location

Airport or City:

Trip Planner

Search our weather history database for the weather conditions in past years. The results will help you decide how hot, cold, wet, or windy it might be!

Date:

Astronomy

Jul. 25, 2013 Rise Set
Actual Time 6:20 AM EDT 8:34 PM EDT
Civil Twilight 5:51 AM EDT 9:04 PM EDT
Nautical Twilight 5:15 AM EDT 9:40 PM EDT
Astronomical Twilight 4:36 AM EDT 10:19 PM EDT
Moon 10:21 PM EDT (7/25) 9:42 AM EDT (7/25)
Length of Visible Light 15h 12m
Length of Day
14h 14m
Waning Gibbous, 88% of the Moon is Illuminated
Jul 25
Waning Gibbous
Jul 29
Last Quarter
Aug 6
New
Aug 14
First Quarter
Aug 20
Full

Hourly Weather History & Observations

Time (EDT) Temp. Heat Index Dew Point Humidity Pressure Visibility Wind Dir Wind Speed Gust Speed Precip Events Conditions
12:15 AM 69.8 °F - 64.4 °F 83% 30.00 in 10.0 mi Calm Calm - N/A   Overcast
12:35 AM 69.8 °F - 64.4 °F 83% 30.00 in 10.0 mi NNE 3.5 mph - N/A   Overcast
12:55 AM 69.8 °F - 64.4 °F 83% 30.01 in 10.0 mi Calm Calm - N/A   Scattered Clouds
1:15 AM 69.8 °F - 64.4 °F 83% 30.00 in 10.0 mi ENE 3.5 mph - N/A   Scattered Clouds
1:35 AM 68.0 °F - 64.4 °F 88% 30.00 in 10.0 mi NE 3.5 mph - N/A   Clear
1:55 AM 68.0 °F - 64.4 °F 88% 30.00 in 10.0 mi Calm Calm - N/A   Mostly Cloudy
2:15 AM 68.0 °F - 64.4 °F 88% 29.99 in 10.0 mi Calm Calm - N/A   Overcast
2:35 AM 68.0 °F - 64.4 °F 88% 29.99 in 10.0 mi Calm Calm - N/A   Mostly Cloudy
2:55 AM 68.0 °F - 64.4 °F 88% 30.00 in 10.0 mi Calm Calm - N/A   Overcast
3:15 AM 68.0 °F - 64.4 °F 88% 30.00 in 10.0 mi North 3.5 mph - N/A   Overcast
3:35 AM 66.2 °F - 64.4 °F 94% 30.00 in 10.0 mi Calm Calm - N/A   Overcast
3:55 AM 66.2 °F - 64.4 °F 94% 30.00 in 10.0 mi NE 3.5 mph - N/A   Overcast
4:15 AM 66.2 °F - 64.4 °F 94% 30.00 in 10.0 mi Calm Calm - N/A   Overcast
4:35 AM 66.2 °F - 64.4 °F 94% 30.00 in 10.0 mi Calm Calm - N/A   Mostly Cloudy
4:55 AM 66.2 °F - 64.4 °F 94% 30.01 in 10.0 mi NNE 3.5 mph - N/A   Overcast
5:15 AM 66.2 °F - 64.4 °F 94% 30.01 in 10.0 mi NE 3.5 mph - N/A   Overcast
5:35 AM 66.2 °F - 64.4 °F 94% 30.01 in 10.0 mi Calm Calm - N/A   Overcast
5:55 AM 66.2 °F - 64.4 °F 94% 30.01 in 10.0 mi NE 3.5 mph - N/A   Overcast
6:15 AM 66.2 °F - 62.6 °F 88% 30.01 in 10.0 mi Calm Calm - N/A   Overcast
6:35 AM 66.2 °F - 62.6 °F 88% 30.02 in 10.0 mi NNE 3.5 mph - N/A   Overcast
6:55 AM 64.4 °F - 62.6 °F 94% 30.02 in 10.0 mi NNE 3.5 mph - N/A   Mostly Cloudy
7:15 AM 64.4 °F - 62.6 °F 94% 30.02 in 10.0 mi Calm Calm - N/A   Mostly Cloudy
7:35 AM 66.2 °F - 62.6 °F 88% 30.02 in 10.0 mi Calm Calm - N/A   Mostly Cloudy
7:55 AM 66.2 °F - 62.6 °F 88% 30.03 in 10.0 mi Calm Calm - N/A   Scattered Clouds
8:15 AM 66.2 °F - 62.6 °F 88% 30.04 in 10.0 mi Calm Calm - N/A   Mostly Cloudy
8:35 AM 66.2 °F - 62.6 °F 88% 30.04 in 10.0 mi East 3.5 mph - N/A   Overcast
8:55 AM 68.0 °F - 62.6 °F 83% 30.05 in 10.0 mi ENE 4.6 mph - N/A   Overcast
9:15 AM 68.0 °F - 62.6 °F 83% 30.06 in 10.0 mi East 3.5 mph - N/A   Mostly Cloudy
9:35 AM 69.8 °F - 62.6 °F 78% 30.06 in 10.0 mi East 4.6 mph - N/A   Overcast
9:55 AM 69.8 °F - 62.6 °F 78% 30.06 in 10.0 mi Calm Calm - N/A   Overcast
10:15 AM 69.8 °F - 62.6 °F 78% 30.06 in 10.0 mi ENE 3.5 mph - N/A   Mostly Cloudy
10:35 AM 69.8 °F - 62.6 °F 78% 30.06 in 10.0 mi Calm Calm - N/A   Mostly Cloudy
10:55 AM 71.6 °F - 62.6 °F 73% 30.06 in 10.0 mi East 3.5 mph - N/A   Scattered Clouds
11:15 AM 73.4 °F - 64.4 °F 73% 30.07 in 10.0 mi Calm Calm - N/A   Scattered Clouds
11:35 AM 73.4 °F - 62.6 °F 69% 30.06 in 10.0 mi ESE 5.8 mph - N/A   Mostly Cloudy
11:55 AM 73.4 °F - 62.6 °F 69% 30.06 in 10.0 mi East 6.9 mph - N/A   Mostly Cloudy
12:15 PM 73.4 °F - 62.6 °F 69% 30.07 in 7.0 mi East 8.1 mph - N/A   Mostly Cloudy
12:35 PM 73.4 °F - 62.6 °F 69% 30.06 in 10.0 mi ENE 3.5 mph - N/A   Scattered Clouds
12:55 PM 75.2 °F - 62.6 °F 65% 30.06 in 10.0 mi East 8.1 mph - N/A   Mostly Cloudy
1:15 PM 71.6 °F - 62.6 °F 73% 30.07 in 10.0 mi ENE 4.6 mph - N/A   Overcast
1:35 PM 75.2 °F - 64.4 °F 69% 30.06 in 10.0 mi East 4.6 mph - N/A   Scattered Clouds
1:55 PM 75.2 °F - 62.6 °F 65% 30.07 in 10.0 mi Calm Calm - N/A   Scattered Clouds
2:15 PM 75.2 °F - 62.6 °F 65% 30.06 in 10.0 mi WNW 5.8 mph - N/A   Scattered Clouds
2:35 PM 77.0 °F - 62.6 °F 61% 30.06 in 10.0 mi WNW 4.6 mph - N/A   Scattered Clouds
2:55 PM 80.6 °F 81.8 °F 62.6 °F 54% 30.06 in 10.0 mi SW 3.5 mph - N/A   Scattered Clouds
3:15 PM 78.8 °F - 60.8 °F 54% 30.06 in 10.0 mi NNW 6.9 mph - N/A   Scattered Clouds
3:35 PM 78.8 °F - 59.0 °F 51% 30.05 in 10.0 mi WNW 3.5 mph - N/A   Scattered Clouds
3:55 PM 78.8 °F - 60.8 °F 54% 30.06 in 10.0 mi WNW 6.9 mph - N/A   Clear
4:15 PM 78.8 °F - 55.4 °F 44% 30.06 in 10.0 mi NW 5.8 mph - N/A   Clear
4:35 PM 80.6 °F 80.8 °F 57.2 °F 45% 30.06 in 10.0 mi NW 6.9 mph - N/A   Clear
4:55 PM 80.6 °F 80.3 °F 53.6 °F 39% 30.06 in 10.0 mi Calm Calm - N/A   Clear
5:15 PM 80.6 °F 80.3 °F 53.6 °F 39% 30.06 in 10.0 mi Calm Calm - N/A   Clear
5:35 PM 78.8 °F - 55.4 °F 44% 30.06 in 10.0 mi Calm Calm - N/A   Clear
5:55 PM 78.8 °F - 57.2 °F 47% 30.06 in 10.0 mi NW 4.6 mph - N/A   Clear
6:15 PM 78.8 °F - 60.8 °F 54% 30.07 in 10.0 mi WNW 4.6 mph - N/A   Clear
6:35 PM 78.8 °F - 60.8 °F 54% 30.07 in 10.0 mi WNW 6.9 mph - N/A   Clear
6:55 PM 77.0 °F - 59.0 °F 54% 30.08 in 10.0 mi NW 8.1 mph - N/A   Scattered Clouds
7:15 PM 75.2 °F - 57.2 °F 53% 30.08 in 10.0 mi NW 8.1 mph - N/A   Clear
7:35 PM 75.2 °F - 57.2 °F 53% 30.09 in 10.0 mi NW 5.8 mph - N/A   Clear
7:55 PM 73.4 °F - 59.0 °F 61% 30.09 in 10.0 mi WNW 3.5 mph - N/A   Clear
8:15 PM 71.6 °F - 60.8 °F 69% 30.10 in 10.0 mi NNW 4.6 mph - N/A   Clear
8:35 PM 69.8 °F - 60.8 °F 73% 30.10 in 10.0 mi NW 4.6 mph - N/A   Clear
8:55 PM 68.0 °F - 60.8 °F 78% 30.10 in 10.0 mi NW 3.5 mph - N/A   Clear
9:15 PM 66.2 °F - 60.8 °F 83% 30.11 in 10.0 mi Calm Calm - N/A   Clear
9:35 PM 66.2 °F - 60.8 °F 83% 30.12 in 10.0 mi North 4.6 mph - N/A   Clear
9:55 PM 66.2 °F - 59.0 °F 78% 30.13 in 10.0 mi Calm Calm - N/A   Clear
10:15 PM 62.6 °F - 60.8 °F 94% 30.14 in 10.0 mi Calm Calm - N/A   Clear
10:35 PM 62.6 °F - 60.8 °F 94% 30.14 in 10.0 mi Calm Calm - N/A   Clear
10:55 PM 60.8 °F - 60.8 °F 100% 30.15 in 10.0 mi Calm Calm - N/A   Clear
11:15 PM 60.8 °F - 60.8 °F 100% 30.15 in 10.0 mi WSW 3.5 mph - N/A   Clear
11:35 PM 60.8 °F - 59.0 °F 94% 30.15 in 10.0 mi West 3.5 mph - N/A   Clear
11:55 PM 59.0 °F - 59.0 °F 100% 30.15 in 10.0 mi Calm Calm - N/A   Clear